Change the Weather History Date:

Saturday, January 11, 2014

  Actual Average Record
Temperature  
Mean Temperature 57 °F -  
Max Temperature 70 °F 71 °F 86 °F (2003)
Min Temperature 44 °F 45 °F 37 °F (2013)
Degree Days  
Heating Degree Days 8    
Growing Degree Days 7 (Base 50)    
Moisture  
Dew Point 46 °F    
Average Humidity 68    
Maximum Humidity 87    
Minimum Humidity 43    
Precipitation  
Precipitation 0.00 in 0.00 in - ()
Sea Level Pressure  
Sea Level Pressure 30.21 in    
Wind  
Wind Speed 2 mph ()    
Max Wind Speed 6 mph    
Max Gust Speed -    
Visibility 6.0 miles    
Events      
Averages and records for this station are not official NWS values.
T = Trace of Precipitation, MM = Missing Value Source: Averaged Metar Reports

Daily Weather History Graph

Daily Weather History Graph

Search for Another Location

Airport or City:

Trip Planner

Search our weather history database for the weather conditions in past years. The results will help you decide how hot, cold, wet, or windy it might be!

Date:

Astronomy

Jan. 11, 2014 Rise Set
Actual Time 6:37 AM EET 5:16 PM EET
Civil Twilight 6:12 AM EET 5:41 PM EET
Nautical Twilight 5:44 AM EET 6:10 PM EET
Astronomical Twilight 5:16 AM EET 6:38 PM EET
Moon 1:41 PM EET (1/11) 2:29 AM EET (1/11)
Length of Visible Light 11h 29m
Length of Day
10h 39m
Waxing Gibbous, 81% of the Moon is Illuminated
Jan 11
Waxing Gibbous
Jan 16
Full
Jan 24
Last Quarter
Jan 30
New
Feb 6
First Quarter

Hourly Weather History & Observations

Time (EET) Temp. Dew Point Humidity Pressure Visibility Wind Dir Wind Speed Gust Speed Precip Events Conditions
12:00 AM 53.6 °F 46.4 °F 77% 30.18 in - SSE 5.8 mph - N/A   Clear
1:00 AM 53.6 °F 44.6 °F 72% 30.18 in - Calm Calm - N/A   Clear
2:00 AM 51 °F 46 °F 77% 30.20 in 6 mi Calm Calm - -  
2:00 AM 51.8 °F 46.4 °F 82% 30.18 in - Calm Calm - N/A   Clear
3:00 AM 50.0 °F 46.4 °F 87% 30.18 in - Calm Calm - N/A   Clear
4:00 AM 48.2 °F 42.8 °F 82% 30.18 in - SSE 2.3 mph - N/A   Clear
5:00 AM 48 °F 45 °F 84% 30.21 in 6 mi Calm Calm - -  
5:00 AM 48.2 °F 44.6 °F 87% 30.18 in - Calm Calm - N/A   Clear
6:00 AM 46.4 °F 41.0 °F 81% 30.21 in - South 2.3 mph - N/A   Clear
7:00 AM 44.6 °F 41.0 °F 87% 30.24 in - Calm Calm - N/A   Clear
8:00 AM 48.2 °F 42.8 °F 82% 30.24 in - Calm Calm - N/A   Clear
10:00 AM 62.6 °F 48.2 °F 59% 30.27 in - Calm Calm - N/A   Clear
11:00 AM 62.6 °F 50.0 °F 63% 30.27 in - Calm Calm - N/A   Clear
12:00 PM 66.2 °F 48.2 °F 52% 30.21 in - ESE 2.3 mph - N/A   Clear
1:00 PM 68.0 °F 50.0 °F 52% 30.18 in - NNE 2.3 mph - N/A   Clear
2:00 PM 69.8 °F 48.2 °F 46% 30.18 in - NNE 2.3 mph - N/A   Clear
3:00 PM 69.8 °F 46.4 °F 43% 30.18 in - North 2.3 mph - N/A   Clear
4:00 PM 69.8 °F 46.4 °F 43% 30.18 in - North 2.3 mph - N/A   Clear
5:00 PM 68.0 °F 46.4 °F 46% 30.18 in - Calm Calm - N/A   Clear
6:00 PM 64.4 °F 46.4 °F 52% 30.21 in - WSW 2.3 mph - N/A   Clear
7:00 PM 59.0 °F 46.4 °F 63% 30.21 in - West 2.3 mph - N/A   Clear
8:00 PM 58 °F 49 °F 62% 30.24 in 6 mi West 4.6 mph - -  
8:00 PM 59.0 °F 48.2 °F 67% 30.24 in - West 4.6 mph - N/A   Clear
9:00 PM 57.2 °F 48.2 °F 72% 30.24 in - SSW 2.3 mph - N/A   Clear
10:00 PM 57.2 °F 46.4 °F 67% 30.24 in - South 2.3 mph - N/A   Clear
11:00 PM 55.4 °F 48.2 °F 77% 30.24 in - SSW 2.3 mph - N/A   Clear